Location: Azul
(36.7830°S, 59.8500°W)
Time: 08:53:04
(UTC-03:00)

CUBEBUG 2 - Pass Details

Date: 28 October 2021
Orbit: 584 x 697 km, 97.7° (Epoch: 07 December)

Event Time Altitude Azimuth Distance (km) Brightness Sun altitude
Exits shadow 03:29:46 58° 94° (E) 721 ? -26.5°
Maximum altitude 03:29:56 58° 105° (ESE) 718 ? -26.5°
Drops below altitude 10° 03:34:14 10° 184° (S) 2,018 ? -25.8°
Sets 03:36:30 0° 187° (S) 2,952 ? -25.5°
